FW1703 Weather Reports


time (UTC)temp
C
wind
direction
speed
KPH
gust
KPH
rain 1hr
cm
rain 24hr
cm
rain mn
cm
humidity
%
barometer
mb
20260831224533 23 99 0.0 3.2 0.00 0.10 0.10 89 1017.5
20260831223031 24 161 0.0 3.2 0.00 0.10 0.10 87 1017.5
20260831221535 25 163 0.0 3.2 0.00 0.10 0.10 86 1017.7
20260831220028 24 163 0.0 3.2 0.00 0.10 0.10 86 1017.8
20260831214533 24 163 0.0 3.2 0.00 0.10 0.10 87 1017.9
20260831213026 24 72 0.0 3.2 0.00 0.10 0.10 85 1018.0
20260831211526 24 165 0.0 3.2 0.00 0.10 0.10 87 1018.0
20260831210024 24 37 0.0 4.8 0.00 0.10 0.10 87 1018.2
20260831204524 24 74 0.0 3.2 0.00 0.10 0.10 90 1018.4
20260831203022 23 25 0.0 3.2 0.00 0.10 0.10 88 1018.5
20260831201522 23 58 0.0 3.2 0.03 0.10 0.10 89 1018.7
20260831200022 23 66 0.0 3.2 0.03 0.10 0.10 90 1018.7
20260831194522 23 342 0.0 0.0 0.03 0.10 0.10 94 1018.8
20260831193034 23 342 0.0 3.2 0.05 0.10 0.10 91 1019.0
20260831191520 23 342 0.0 3.2 0.08 0.08 0.08 90 1019.4
20260831190037 23 350 0.0 3.2 0.08 0.08 0.08 89 1019.3
20260831184520 23 28 0.0 3.2 0.08 0.08 0.08 88 1019.2
20260831183018 25 183 0.0 3.2 0.05 0.05 0.05 80 1019.4
20260831181518 26 314 0.0 4.8 0.00 0.00 0.00 72 1019.5
20260831180017 26 15 0.0 4.8 0.00 0.00 0.00 71 1019.3
20260831174516 26 59 0.0 3.2 0.00 0.00 0.00 71 1019.5
20260831173015 25 128 0.0 3.2 0.00 0.00 0.00 77 1019.3
20260831171514 26 69 0.0 3.2 0.00 0.00 0.00 73 1019.4
20260831170014 25 22 0.0 3.2 0.00 0.00 0.00 75 1019.5
20260831164519 25 43 0.0 3.2 0.00 0.00 0.00 74 1019.6
20260831163017 25 88 1.6 4.8 0.00 0.00 0.00 75 1019.6
20260831161512 25 22 0.0 3.2 0.00 0.00 0.00 77 1019.7
20260831160013 25 163 0.0 3.2 0.00 0.00 0.00 74 1019.7
20260831154522 26 182 0.0 3.2 0.00 0.00 0.00 71 1019.6
20260831153014 26 34 1.6 8.0 0.00 0.00 0.00 74 1019.7
20260831151506 25 194 0.0 4.8 0.00 0.00 0.00 78 1019.9
20260831150004 24 171 1.6 4.8 0.00 0.00 0.00 79 1019.9
20260831144502 24 217 0.0 4.8 0.00 0.00 0.00 80 1020.0
20260831143058 23 120 0.0 1.6 0.00 0.00 0.00 83 1020.0
20260831141601 23 171 0.0 3.2 0.00 0.00 0.00 81 1020.1
20260831140056 23 140 0.0 0.0 0.00 0.00 0.00 85 1020.0
20260831134601 23 140 0.0 3.2 0.00 0.00 0.00 84 1020.2
20260831133103 23 21 0.0 3.2 0.00 0.00 0.00 82 1020.1
20260831131557 23 177 0.0 3.2 0.00 0.00 0.00 85 1020.0
20260831130050 22 32 0.0 4.8 0.00 0.00 0.00 89 1020.0
20260831124548 22 155 1.6 4.8 0.00 0.00 0.00 90 1020.0
20260831123047 21 155 0.0 3.2 0.00 0.00 0.00 92 1019.8
20260831121546 21 155 0.0 3.2 0.00 0.00 0.00 93 1019.9
20260831120046 21 155 0.0 0.0 0.00 0.00 0.00 95 1019.8
20260831114544 21 155 0.0 3.2 0.00 0.00 0.00 97 1019.8
20260831113044 20 155 0.0 1.6 0.00 0.00 0.00 98 1019.5
20260831111544 20 155 0.0 3.2 0.00 0.00 0.00 99 1019.5
20260831110039 20 155 0.0 0.0 0.00 0.00 0.00 99 1019.3
20260831104550 20 155 0.0 0.0 0.00 0.00 0.00 99 1019.1
20260831103036 20 155 0.0 0.0 0.00 0.00 0.00 99 1019.0
20260831101543 20 155 0.0 0.0 0.00 0.00 0.00 99 1018.9
20260831100034 20 155 0.0 0.0 0.00 0.00 0.00 99 1018.7
20260831094540 20 155 0.0 0.0 0.00 0.00 0.00 99 1018.6
20260831093043 21 155 0.0 0.0 0.00 0.00 0.00 99 1018.6
20260831091541 21 155 0.0 0.0 0.00 0.00 0.00 99 1018.6
20260831090031 21 155 0.0 1.6 0.00 0.00 0.00 99 1018.6
20260831084607 21 155 0.0 0.0 0.00 0.00 0.00 98 1018.4
20260831083028 21 155 0.0 0.0 0.00 0.00 0.00 98 1018.6
20260831081526 21 155 0.0 1.6 0.00 0.00 0.00 98 1018.5
20260831080038 21 155 0.0 0.0 0.00 0.00 0.00 98 1018.3
20260831074541 21 155 0.0 0.0 0.00 0.00 0.00 97 1018.4
20260831073024 21 155 0.0 3.2 0.00 0.00 0.00 97 1018.4
20260831071621 21 156 0.0 0.0 0.00 0.00 0.00 97 1018.5
20260831070023 22 156 0.0 3.2 0.00 0.00 0.00 97 1018.6
20260831064524 22 156 0.0 3.2 0.00 0.00 0.00 96 1018.6
20260831063018 22 156 0.0 3.2 0.00 0.00 0.00 96 1018.5
20260831061517 22 36 0.0 3.2 0.00 0.00 0.00 97 1018.7
20260831060016 22 36 0.0 3.2 0.00 0.00 0.00 96 1018.8
20260831054519 22 36 0.0 0.0 0.00 0.00 0.00 96 1018.4
20260831053012 22 36 0.0 1.6 0.00 0.00 0.00 96 1018.4
20260831051523 22 36 0.0 0.0 0.00 0.00 0.00 95 1018.4
20260831050009 22 36 0.0 3.2 0.00 0.00 0.00 95 1018.4
20260831044512 22 36 0.0 0.0 0.00 0.00 0.00 94 1018.6
20260831043007 23 36 0.0 0.0 0.00 0.00 0.00 93 1018.5
20260831041511 23 36 0.0 1.6 0.00 0.00 0.00 92 1018.6
20260831040018 23 36 0.0 3.2 0.00 0.00 0.00 90 1018.6
20260831034507 23 323 0.0 3.2 0.00 0.00 0.00 89 1018.7
20260831033008 24 342 0.0 3.2 0.00 0.00 0.00 89 1018.8
20260831031508 24 271 0.0 3.2 0.00 0.00 0.00 89 1019.0
20260831030005 24 249 0.0 3.2 0.00 0.00 0.00 89 1019.1
20260831024507 24 266 0.0 3.2 0.00 0.00 0.00 88 1019.2
20260831023003 24 311 1.6 8.0 0.00 0.00 0.00 88 1019.0
20260831021504 24 205 0.0 3.2 0.00 0.00 0.00 90 1018.9
20260831020003 24 200 0.0 3.2 0.00 0.00 0.00 91 1018.8
20260831014504 24 227 0.0 4.8 0.00 0.00 0.00 92 1018.8
20260831013005 24 126 0.0 3.2 0.00 0.00 0.00 93 1018.8
20260831011502 24 126 0.0 1.6 0.00 0.00 0.00 93 1018.9
20260831010000 24 126 0.0 3.2 0.00 0.00 0.00 92 1018.5
20260831004603 24 126 0.0 0.0 0.00 0.00 0.00 91 1018.3
20260831003059 24 126 0.0 0.0 0.00 0.00 0.00 90 1018.0
20260831001618 25 156 0.0 3.2 0.00 0.00 0.00 89 1017.9
20260831000058 25 156 0.0 1.6 0.00 0.00 0.00 88 1017.8
20260830234557 25 167 0.0 3.2 0.00 0.00 0.00 85 1017.7
20260830233114 26 180 0.0 6.4 0.00 0.00 0.00 81 1017.8
20260830231559 27 292 0.0 3.2 0.00 0.00 0.00 78 1017.7
20260830230109 27 205 0.0 3.2 0.00 0.00 0.00 77 1017.7